Overview Statistics Trail Chart Weather Telemetry Raw packets
 

This is the latest recevied weather packets stored in our database for station/object KD0TNH-13. If no packets are shown the sender has not sent any weather packets the latest 10 day(s).

<< 84 85 86 87 88 89 90 >>
Time Temp. Humidity Pressure Rain* Wind** Luminosity Snow
1787943801 22.78° C 75% 29.3 hPa 0 mm 0.45 m/s, 234° - -
1787943500 22.78° C 74% 29.3 hPa 0 mm 0.45 m/s, 43° - -
1787943200 22.78° C 75% 29.3 hPa 0 mm 0 m/s - -
1787942900 22.78° C 75% 29.3 hPa 0 mm 0.45 m/s, 108° - -
1787942599 22.78° C 74% 29.3 hPa 0 mm 0 m/s - -
1787942298 22.22° C 73% 29.3 hPa 0 mm 0.45 m/s, 172° - -
1787941998 22.22° C 72% 29.3 hPa 0 mm 0 m/s - -
1787941697 22.22° C 71% 29.3 hPa 0 mm 0 m/s - -
1787941397 22.78° C 71% 29.3 hPa 0 mm 0.89 m/s, 254° - -
1787941096 22.78° C 71% 29.3 hPa 0 mm 0.45 m/s, 234° - -
1787940795 22.78° C 70% 29.3 hPa 0 mm 1.34 m/s, 226° - -
1787940494 22.78° C 69% 29.3 hPa 0 mm 0.89 m/s, 212° - -
1787940194 22.78° C 69% 29.3 hPa 0 mm 0.45 m/s, 200° - -
1787939892 22.78° C 67% 29.3 hPa 0 mm 0.89 m/s, 73° - -
1787939591 23.33° C 67% 29.3 hPa 0 mm 1.34 m/s, 236° - -
1787939290 23.33° C 66% 29.3 hPa 0 mm 0.45 m/s, 126° - -
1787938990 23.33° C 65% 29.3 hPa 0 mm 0 m/s - -
1787938689 23.33° C 65% 29.3 hPa 0 mm 0 m/s - -
1787938388 23.33° C 65% 29.3 hPa 0 mm 0.89 m/s, 51° - -
1787938088 23.33° C 66% 29.3 hPa 0 mm 0.45 m/s, 329° - -
1787937788 23.33° C 66% 29.3 hPa 0 mm 0 m/s - -
1787937487 23.33° C 65% 29.3 hPa 0 mm 0.89 m/s, 251° - -
1787937187 23.33° C 66% 29.3 hPa 0 mm 0.89 m/s, 302° - -
1787936886 23.33° C 66% 29.3 hPa 0 mm 0.45 m/s, 123° - -
1787936586 23.33° C 68% 29.3 hPa 0 mm 0 m/s - -

* Rain latest hour (hover to see other rain measurements)
** Current wind speed in m/s (hover to see current wind gust speed)